Latest Coastal Weather Observations for Gannett Cay

IDQ60701

Issued at 12:52 am EST Friday 5 March 2021 (issued every 10 minutes, with the page automatically refreshed every 10 minutes)

About coastal observations | Map of coastal stations | Coastal observations for QLD | Marine services | Other Formats
Station Details ID: 200831 Name: GANNET CAY Lat: -21.98 Lon: 152.47 Height: 2.3 m
Data from the previous 72 hours. | See also: Recent months for locations in Queensland
Date/Time
EST
Wind Sea
Height
m
Swell Vis
km
Cloud Weather Temp
°C
Press
MSL
hPa
Rain since
9am
mm
Dir  Spd
kts
Gust
kts
Height
m
Period
s
Dir
05/12:30am SE 30 35 - - - - - - - 26.4 1005.0 -
05/12:00am SE 31 35 - - - - - - - 26.4 1005.3 -
 
Date/Time
EST
Wind Sea
Height
m
Swell Vis
km
Cloud Weather Temp
°C
Press
MSL
hPa
Rain since
9am
mm
Dir  Spd
kts
Gust
kts
Height
m
Period
s
Dir
04/11:30pm SE 31 36 - - - - - - - 26.6 1005.4 -
04/11:00pm SE 30 35 - - - - - - - 26.7 1005.5 -
04/10:30pm SE 30 35 - - - - - - - 26.8 1005.7 -
04/10:00pm SE 31 36 - - - - - - - 27.1 1006.0 -
04/09:30pm SE 31 38 - - - - - - - 27.2 1005.9 -
04/09:00pm SE 33 37 - - - - - - - 27.1 1005.8 -
04/08:30pm SE 31 35 - - - - - - - 26.8 1005.4 -
04/08:00pm SE 33 39 - - - - - - - 26.8 1005.3 -
04/07:30pm SE 33 37 - - - - - - - 26.8 1005.2 -
04/07:00pm SE 30 37 - - - - - - - 26.9 1004.9 -
04/06:30pm SE 30 36 - - - - - - - 27.0 1004.8 -
04/06:00pm SE 32 37 - - - - - - - 27.0 1004.6 -
04/05:30pm SE 31 38 - - - - - - - 27.1 1004.1 -
04/05:00pm SE 31 35 - - - - - - - 27.1 1003.9 -
04/04:30pm SE 31 37 - - - - - - - 27.1 1003.6 -
04/04:00pm SE 31 35 - - - - - - - 27.1 1003.6 -
04/03:30pm SE 31 34 - - - - - - - 27.2 1003.2 -
04/03:00pm SE 28 33 - - - - - - - 27.3 1003.2 -
04/02:30pm SE 28 32 - - - - - - - 27.2 1003.7 -
04/02:00pm SE 27 32 - - - - - - - 27.3 1003.9 -
04/01:30pm SE 27 32 - - - - - - - 27.3 1004.1 -
04/01:00pm SE 27 32 - - - - - - - 27.3 1004.5 -
04/12:30pm SE 27 32 - - - - - - - 27.4 1004.8 -
04/12:00pm SE 26 30 - - - - - - - 27.4 1004.9 -
04/11:30am ESE 28 32 - - - - - - - 27.5 1005.1 -
04/11:00am ESE 28 31 - - - - - - - 27.4 1005.3 -
04/10:30am ESE 27 31 - - - - - - - 27.7 1005.7 -
04/10:00am ESE 27 32 - - - - - - - 27.7 1005.9 -
04/09:30am ESE 25 30 - - - - - - - 27.5 1005.8 -
04/09:00am ESE 26 30 - - - - - - - 27.6 1005.7 -
04/08:30am ESE 25 31 - - - - - - - 27.4 1005.4 -
04/08:00am SE 27 32 - - - - - - - 26.6 1005.3 -
04/07:46am ESE 26 39 - - - - - - - 26.6 1005.2 -
04/07:30am ESE 26 30 - - - - - - - 27.5 1004.8 -
04/07:00am ESE 26 30 - - - - - - - 27.5 1004.5 -
04/06:30am ESE 24 28 - - - - - - - 27.3 1004.5 -
04/06:00am ESE 25 29 - - - - - - - 27.4 1004.4 -
04/05:30am ESE 23 28 - - - - - - - 27.2 1004.1 -
04/05:00am ESE 23 27 - - - - - - - 27.2 1004.0 -
04/04:30am ESE 24 28 - - - - - - - 26.8 1003.9 -
04/04:00am ESE 24 27 - - - - - - - 27.3 1003.7 -
04/03:30am ESE 23 28 - - - - - - - 27.3 1003.8 -
04/03:00am ESE 23 26 - - - - - - - 27.4 1003.9 -
04/02:30am ESE 25 28 - - - - - - - 27.3 1004.1 -
04/02:00am ESE 23 26 - - - - - - - 27.4 1004.3 -
04/01:30am ESE 22 25 - - - - - - - 27.3 1004.5 -
04/01:00am ESE 23 26 - - - - - - - 27.3 1004.6 -
04/12:30am ESE 22 25 - - - - - - - 27.4 1004.8 -
04/12:00am ESE 24 27 - - - - - - - 27.3 1004.9 -
 
Date/Time
EST
Wind Sea
Height
m
Swell Vis
km
Cloud Weather Temp
°C
Press
MSL
hPa
Rain since
9am
mm
Dir  Spd
kts
Gust
kts
Height
m
Period
s
Dir
03/11:30pm ESE 23 26 - - - - - - - 27.4 1005.4 -
03/11:00pm ESE 23 27 - - - - - - - 27.4 1005.7 -
03/10:30pm ESE 22 26 - - - - - - - 27.4 1005.8 -
03/10:00pm ESE 22 25 - - - - - - - 27.4 1006.0 -
03/09:30pm ESE 22 26 - - - - - - - 27.5 1006.1 -
03/09:00pm SE 21 25 - - - - - - - 27.5 1006.0 -
03/08:30pm SE 21 24 - - - - - - - 27.5 1006.0 -
03/08:00pm SE 20 23 - - - - - - - 27.5 1006.0 -
03/07:30pm SE 21 24 - - - - - - - 27.5 1006.0 -
03/07:00pm SE 19 22 - - - - - - - 27.4 1005.8 -
03/06:30pm SE 19 21 - - - - - - - 27.4 1005.6 -
03/06:00pm SE 19 22 - - - - - - - 27.6 1005.2 -
03/05:30pm SE 17 21 - - - - - - - 27.5 1005.0 -
03/05:00pm SE 19 21 - - - - - - - 27.6 1004.9 -
03/04:30pm SE 19 22 - - - - - - - 27.7 1005.0 -
03/04:00pm SE 19 23 - - - - - - - 27.8 1004.9 -
03/03:30pm SE 19 22 - - - - - - - 27.7 1005.0 -
03/03:00pm SE 21 24 - - - - - - - 27.7 1005.0 -
03/02:30pm SE 21 24 - - - - - - - 27.7 1005.1 -
03/02:00pm SE 21 25 - - - - - - - 27.7 1005.2 -
03/01:30pm SE 21 23 - - - - - - - 27.7 1005.7 -
03/01:00pm SE 22 24 - - - - - - - 27.7 1005.8 -
03/12:30pm SE 21 25 - - - - - - - 27.7 1006.0 -
03/12:00pm SSE 22 25 - - - - - - - 27.6 1006.2 -
03/11:30am SSE 23 25 - - - - - - - 27.7 1006.7 -
03/11:00am SSE 21 25 - - - - - - - 27.7 1007.0 -
03/10:30am SSE 22 25 - - - - - - - 27.7 1007.1 -
03/10:00am SE 21 26 - - - - - - - 27.7 1007.3 -
03/09:30am SE 20 23 - - - - - - - 27.7 1007.2 -
03/09:00am SE 19 22 - - - - - - - 28.0 1007.1 -
03/08:30am SE 18 22 - - - - - - - 27.9 1006.9 -
03/08:00am SE 19 21 - - - - - - - 27.7 1006.7 -
03/07:30am SE 21 24 - - - - - - - 27.8 1006.3 -
03/07:00am SE 19 21 - - - - - - - 27.6 1006.1 -
03/06:30am ESE 18 21 - - - - - - - 27.6 1005.8 -
03/06:00am ESE 19 21 - - - - - - - 27.6 1005.4 -
03/05:30am ESE 20 22 - - - - - - - 27.5 1005.4 -
03/05:00am ESE 19 22 - - - - - - - 27.6 1005.3 -
03/04:30am ESE 20 23 - - - - - - - 27.6 1005.2 -
03/04:00am ESE 21 24 - - - - - - - 27.5 1004.9 -
03/03:30am ESE 19 23 - - - - - - - 27.4 1004.7 -
03/03:00am ESE 21 24 - - - - - - - 27.6 1004.8 -
03/02:30am ESE 21 24 - - - - - - - 27.5 1004.9 -
03/02:00am ESE 19 23 - - - - - - - 27.5 1004.7 -
03/01:30am ESE 20 22 - - - - - - - 27.5 1005.1 -
03/01:00am ESE 19 21 - - - - - - - 27.5 1005.2 -
03/12:30am ESE 20 23 - - - - - - - 27.6 1005.3 -
03/12:00am ESE 21 24 - - - - - - - 27.6 1005.3 -
 
Date/Time
EST
Wind Sea
Height
m
Swell Vis
km
Cloud Weather Temp
°C
Press
MSL
hPa
Rain since
9am
mm
Dir  Spd
kts
Gust
kts
Height
m
Period
s
Dir
02/11:30pm ESE 19 25 - - - - - - - 27.6 1005.7 -
02/11:00pm ESE 20 24 - - - - - - - 27.6 1006.0 -
02/10:30pm E 22 26 - - - - - - - 27.7 1006.1 -
02/10:00pm ESE 19 21 - - - - - - - 27.7 1006.6 -
02/09:30pm ESE 19 22 - - - - - - - 27.7 1006.5 -
02/09:00pm ESE 20 23 - - - - - - - 27.7 1006.7 -
02/08:30pm ESE 20 24 - - - - - - - 27.7 1006.4 -
02/08:00pm ESE 21 24 - - - - - - - 27.6 1006.0 -
02/07:30pm SE 20 23 - - - - - - - 27.6 1005.6 -
02/07:00pm SE 20 25 - - - - - - - 27.3 1005.5 -
02/06:30pm SE 20 23 - - - - - - - 27.6 1005.3 -
02/06:00pm SE 18 21 - - - - - - - 27.6 1005.0 -
02/05:30pm SE 19 23 - - - - - - - 27.6 1004.7 -
02/05:00pm SE 21 25 - - - - - - - 27.7 1004.6 -
02/04:30pm SE 20 22 - - - - - - - 27.3 1004.6 -
02/04:00pm SE 18 21 - - - - - - - 27.4 1004.4 -
02/03:30pm SE 18 22 - - - - - - - 27.3 1004.5 -
02/03:00pm ESE 20 23 - - - - - - - 27.4 1004.4 -
02/02:30pm ESE 21 24 - - - - - - - 27.4 1004.8 -
02/02:00pm ESE 21 24 - - - - - - - 27.5 1004.8 -
02/01:30pm ESE 21 24 - - - - - - - 27.6 1005.3 -
02/01:00pm ESE 21 25 - - - - - - - 27.5 1005.6 -
02/12:30pm SE 21 25 - - - - - - - 27.3 1005.6 -
02/12:00pm SE 21 25 - - - - - - - 27.3 1005.9 -
02/11:30am ESE 21 24 - - - - - - - 27.2 1006.1 -
02/11:00am ESE 22 25 - - - - - - - 27.3 1006.0 -
02/10:30am ESE 21 24 - - - - - - - 27.5 1006.3 -
02/10:00am ESE 17 20 - - - - - - - 27.3 1006.8 -
02/09:30am ESE 18 23 - - - - - - - 27.0 1007.2 -
02/09:00am ESE 16 17 - - - - - - - 27.4 1007.1 -
02/08:30am ESE 18 21 - - - - - - - 27.6 1007.0 -
02/08:00am E 19 22 - - - - - - - 27.4 1006.4 -
02/07:30am ESE 18 21 - - - - - - - 27.4 1006.3 -
02/07:00am E 20 23 - - - - - - - 27.5 1006.0 -
02/06:30am E 20 23 - - - - - - - 27.6 1005.5 -
02/06:00am ESE 20 23 - - - - - - - 27.6 1005.2 -
02/05:30am ESE 22 24 - - - - - - - 27.5 1004.5 -
02/05:00am ESE 21 25 - - - - - - - 27.3 1004.3 -
02/04:30am ESE 22 25 - - - - - - - 27.3 1004.5 -
02/04:00am ESE 24 26 - - - - - - - 27.2 1004.4 -
02/03:30am ESE 22 25 - - - - - - - 27.3 1004.5 -
02/03:00am SE 23 27 - - - - - - - 27.1 1004.7 -
02/02:30am SE 23 26 - - - - - - - 27.0 1004.8 -
02/02:00am SE 18 24 - - - - - - - 26.6 1004.8 -
02/01:30am ESE 17 20 - - - - - - - 26.0 1005.5 -
02/01:00am ESE 21 25 - - - - - - - 25.5 1006.2 -

Other formats

Comma delimited format used in spreadsheet applications
http://www.bom.gov.au/fwo/IDQ60701/IDQ60701.94379.axf

JavaScript Object Notation format (JSON) in row-major order
http://www.bom.gov.au/fwo/IDQ60701/IDQ60701.94379.json

Data quality

Most of these data are generated automatically and are frequently updated. Quality checks on data are not normally performed. It is possible for incorrect values to appear. Refer to information at About Latest Weather Observations and please check the disclaimer before using these data.